N0OQA Weather Reports


Display with metric or nautical units.
time (UTC)temp
F
wind
direction
speed
MPH
gust
MPH
rain 1hr
in
rain 24hr
in
rain mn
in
humidity
%
barometer
mb
20260905122442 64 10 5.0 8.0 0.00 0.00 0.00 100 1019.2
20260905120437 63 14 6.0 8.0 0.00 0.00 0.00 100 1019.2
20260905115937 63 7 6.0 8.0 0.00 0.00 0.00 100 1019.1
20260905112932 63 0 0.0 0.0 0.00 0.00 0.00 100 1018.9
20260905112431 63 75 2.0 4.0 0.00 0.00 0.00 100 1019.1
20260905105428 63 0 0.0 0.0 0.00 0.00 0.00 100 1018.8
20260905101421 63 7 3.0 5.0 0.00 0.00 0.00 100 1018.4
20260905095418 63 17 3.0 5.0 0.00 0.00 0.00 100 1017.8
20260905094918 63 73 3.0 5.0 0.00 0.00 0.00 100 1017.6
20260905093417 64 72 4.0 7.0 0.00 0.00 0.00 100 1017.7
20260905085415 64 11 5.0 6.0 0.00 0.00 0.00 100 1018.3
20260905081409 64 49 1.0 3.0 0.00 0.00 0.00 100 1018.7
20260905080409 64 89 3.0 5.0 0.00 0.00 0.00 100 1018.7
20260905075408 64 0 0.0 0.0 0.00 0.00 0.00 100 1018.5
20260905073901 64 14 4.0 7.0 0.00 0.00 0.00 100 1018.6
20260905071849 64 79 4.0 7.0 0.00 0.00 0.00 100 1018.5
20260905070344 65 28 3.0 6.0 0.00 0.00 0.00 99 1018.5
20260905060839 65 15 5.0 7.0 0.00 0.00 0.00 98 1018.6
20260905054337 65 11 6.0 8.0 0.00 0.00 0.00 97 1018.6
20260905052833 65 10 6.0 9.0 0.00 0.00 0.00 97 1018.5
20260905051332 65 3 5.0 8.0 0.00 0.00 0.00 96 1018.3
20260905041328 65 69 3.0 5.0 0.00 0.00 0.00 94 1018.2
20260905040827 66 48 2.0 5.0 0.00 0.00 0.00 93 1018.1
20260905040327 66 0 0.0 0.0 0.00 0.00 0.00 93 1018.2
20260905035326 66 25 3.0 6.0 0.00 0.00 0.00 92 1018.2
20260905034826 66 44 5.0 9.0 0.00 0.00 0.00 92 1018.2
20260905033825 66 27 7.0 10.0 0.00 0.00 0.00 91 1018.3
20260905032825 67 20 6.0 8.0 0.00 0.00 0.00 91 1018.1
20260905025323 68 42 5.0 7.0 0.00 0.00 0.00 87 1018.0
20260905022314 70 328 4.0 5.0 0.00 0.00 0.00 83 1017.5
20260905021814 70 30 6.0 8.0 0.00 0.00 0.00 83 1017.7
20260905020311 71 69 3.0 5.0 0.00 0.00 0.00 80 1017.4
20260905013806 73 17 6.0 10.0 0.00 0.00 0.00 77 1017.3
20260905013306 74 10 6.0 11.0 0.00 0.00 0.00 76 1017.2
20260905012306 74 13 6.0 11.0 0.00 0.00 0.00 75 1017.0
20260905011305 76 41 3.0 5.0 0.00 0.00 0.00 74 1016.8
20260905004804 78 21 4.0 6.0 0.00 0.00 0.00 70 1016.6
20260905000801 80 30 4.0 7.0 0.00 0.00 0.00 66 1016.3
20260904235300 80 42 4.0 6.0 0.00 0.00 0.00 66 1016.1
20260904234300 81 31 6.0 8.0 0.00 0.00 0.00 65 1016.1
20260904215749 83 15 9.0 13.0 0.00 0.00 0.00 60 1015.3
20260904214749 83 4 8.0 11.0 0.00 0.00 0.00 60 1015.3
20260904205746 84 1 7.0 9.0 0.00 0.00 0.00 60 1015.3
20260904204245 85 1 6.0 9.0 0.00 0.00 0.00 57 1015.4
20260904203745 85 359 1.0 3.0 0.00 0.00 0.00 58 1015.4
20260904202244 84 80 3.0 6.0 0.00 0.00 0.00 59 1015.4
20260904201743 83 15 5.0 8.0 0.00 0.00 0.00 61 1015.4
20260904200243 83 176 5.0 7.0 0.00 0.00 0.00 62 1015.4
20260904193740 80 13 11.0 15.0 0.00 0.00 0.00 65 1015.5
20260904193239 80 120 8.0 13.0 0.00 0.00 0.00 66 1015.6
20260904191238 79 336 4.0 10.0 0.00 0.00 0.00 70 1015.7
20260904185735 78 98 3.0 7.0 0.00 0.00 0.00 72 1015.8
20260904182733 76 30 5.0 6.0 0.00 0.00 0.00 78 1016.0
20260904173729 74 46 4.0 7.0 0.00 0.00 0.00 83 1015.7
20260904170727 73 20 7.0 10.0 0.00 0.00 0.00 91 1015.7
20260904163223 74 15 6.0 8.0 0.00 0.00 0.00 95 1015.3
20260904161222 73 3 6.0 8.0 0.00 0.00 0.00 99 1014.9
20260904160722 73 359 3.0 4.0 0.00 0.00 0.00 100 1014.9
20260904160222 72 357 6.0 8.0 0.00 0.00 0.00 100 1014.9
20260904155221 71 13 6.0 7.0 0.00 0.00 0.00 100 1014.8
20260904153220 71 10 5.0 7.0 0.00 0.00 0.00 100 1014.7
20260904151719 70 6 5.0 8.0 0.00 0.00 0.00 100 1014.7
20260904143216 70 323 6.0 7.0 0.00 0.00 0.00 99 1014.2
20260904142216 70 138 2.0 3.0 0.00 0.00 0.00 98 1014.1
20260904141716 70 146 3.0 5.0 0.00 0.00 0.00 98 1014.1
20260904141215 70 0 0.0 0.0 0.00 0.00 0.00 98 1014.0
20260904135214 70 173 5.0 7.0 0.00 0.00 0.00 98 1013.6
20260904130210 68 0 0.0 0.0 0.00 0.00 0.00 98 1013.6